GEFSNE_500_meanwind_006.txt.gz
Wind_Speed
40 38 35 31 26 25 26 28 31 35 34 31 31 32 33 32 30 30 30 30 29 28 27 27 26 27 27 28 30 31 32 33 35 35 36 37 38 38
31 29 27 24 22 24 27 30 34 36 36 32 30 29 27 26 27 29 30 30 29 28 29 28 28 27 27 28 30 31 32 34 34 35 38 40 40 40
22 22 21 22 26 29 30 32 32 31 30 26 24 21 22 24 26 27 29 29 29 29 31 30 30 30 31 32 33 34 34 34 34 34 37 39 42 42
21 23 26 28 29 29 28 26 23 20 17 15 17 20 22 24 25 26 27 27 28 29 30 29 30 31 32 33 35 36 36 36 36 35 36 38 40 42
17 18 19 20 22 21 20 18 16 14 15 18 19 21 22 24 25 25 25 26 27 28 29 29 30 31 33 34 36 37 38 39 38 38 38 39 40 40
16 15 14 14 15 15 16 15 14 16 18 20 20 20 22 23 24 24 26 26 28 29 31 31 32 34 36 37 37 38 39 39 40 42 43 42 40 39
17 15 14 13 13 14 15 15 16 18 19 20 20 20 21 22 24 26 27 29 30 32 32 33 35 36 37 37 38 39 40 40 41 42 44 42 40 39
16 15 14 13 12 13 14 15 15 17 18 19 20 20 21 23 25 27 27 28 29 31 33 35 38 39 40 41 41 42 42 42 42 41 41 41 40 38
16 15 15 14 14 14 14 14 15 15 16 18 19 20 21 22 22 22 22 24 26 28 30 32 34 36 38 40 41 43 44 43 42 41 38 38 37 36
16 16 15 14 14 14 14 13 13 13 13 14 15 15 16 16 18 20 24 27 30 32 34 36 38 40 41 41 42 42 42 42 43 42 39 37 36 33
14 13 11 11 11 12 12 11 11 10 9 9 10 13 15 18 21 24 27 30 33 35 37 38 39 41 43 43 42 41 40 39 39 39 38 36 34 31
11 10 9 9 9 9 9 9 7 6 7 8 11 14 18 21 25 28 30 32 34 34 35 36 35 36 37 38 37 36 36 35 33 33 32 32 30 28
9 10 10 9 9 8 8 7 7 7 8 9 13 17 20 23 25 27 27 28 28 29 29 29 28 27 28 29 30 29 29 29 29 28 28 27 26 24
10 11 11 10 10 8 7 7 7 6 8 11 14 17 20 21 23 23 24 24 24 24 24 24 24 24 24 24 25 25 26 27 26 25 26 28 27 24
11 12 12 11 10 9 8 8 7 6 7 11 14 17 19 21 22 22 22 22 21 21 20 21 23 23 22 21 21 22 22 23 23 23 24 28 29 28
13 13 13 11 10 9 8 8 7 6 7 10 14 17 19 20 21 21 21 21 21 20 19 20 21 21 19 18 18 18 18 19 20 20 20 21 23 24
14 12 12 11 10 9 8 8 7 6 7 9 12 16 18 20 22 23 24 24 23 22 22 22 21 21 20 19 18 17 16 16 17 19 19 19 17 19
14 13 13 12 11 9 9 9 8 7 7 8 10 14 17 19 22 24 26 27 27 27 26 26 25 23 22 20 20 19 17 16 16 19 21 22 22 22
13 12 12 11 10 10 11 11 9 9 8 8 9 11 14 17 20 23 26 28 30 30 30 29 27 25 24 21 20 20 20 19 18 18 21 24 26 28
11 10 10 10 10 11 13 13 12 11 10 8 8 9 12 15 18 22 26 29 31 34 34 33 30 27 24 21 19 19 20 20 20 20 20 23 27 30
11 11 11 10 11 13 15 16 16 14 12 10 9 8 9 12 16 21 25 29 32 35 37 37 33 29 25 22 19 18 18 18 18 19 19 20 23 29
14 14 14 13 13 14 16 18 18 17 15 14 13 11 10 12 16 21 25 28 30 32 36 39 37 31 27 24 22 21 20 19 18 18 18 20 21 25
17 16 17 16 15 15 17 19 19 19 18 17 17 17 16 17 19 22 24 26 29 31 34 36 37 34 29 25 24 23 22 21 20 19 18 19 22 24

GEFSNE_500_meanwind_012.txt.gz
Wind_Speed
40 39 39 37 36 35 34 33 31 29 28 27 27 28 29 30 30 30 33 34 34 33 32 32 32 31 31 32 33 33 33 34 34 33 34 34 34 33
38 37 35 34 33 32 31 29 28 27 25 25 26 27 28 30 31 31 32 33 35 35 34 33 32 32 32 32 33 34 35 36 37 37 38 38 38 37
33 32 31 30 30 29 28 27 26 25 24 25 25 25 26 29 31 33 34 33 35 36 34 31 31 31 32 33 34 35 36 37 39 40 41 41 41 40
27 27 27 26 25 25 26 26 26 27 26 26 26 27 28 30 31 31 30 28 28 28 28 28 29 30 32 33 34 36 37 38 40 41 42 43 43 43
22 23 24 24 24 25 27 27 28 29 28 28 27 28 28 27 25 24 22 22 21 21 22 24 26 28 30 32 34 37 39 40 41 43 44 45 45 46
20 21 23 24 25 27 29 29 29 29 28 26 25 23 22 20 18 17 17 18 20 21 22 24 25 27 29 31 33 35 37 40 42 43 44 45 46 47
20 20 21 23 24 25 26 26 25 23 22 20 18 17 16 15 15 15 16 17 19 20 22 24 26 28 30 32 34 36 38 40 42 44 46 47 48 49
20 20 20 20 21 20 19 18 17 16 15 16 17 16 15 14 14 14 15 16 19 21 23 25 27 29 31 33 36 38 40 43 45 47 49 50 51 52
19 19 19 18 17 17 16 16 16 16 16 16 15 14 13 12 13 14 15 17 18 20 22 24 25 27 30 32 35 38 41 43 46 48 50 51 53 54
18 17 17 16 16 16 16 16 15 15 14 13 12 11 11 11 12 13 14 15 17 19 21 24 26 29 32 35 38 42 45 47 50 52 54 55 55 55
17 16 16 15 16 16 15 15 15 13 12 10 10 9 9 10 10 12 13 15 17 19 21 23 25 27 30 33 36 39 43 46 48 52 55 57 59 59
14 14 14 14 14 15 15 14 13 12 11 10 9 8 8 8 9 10 12 13 14 15 16 18 19 22 24 27 29 31 33 36 38 40 43 47 51 56
13 13 13 13 14 14 14 13 12 12 11 10 8 7 6 5 6 8 9 10 11 12 14 16 18 21 24 26 28 30 32 33 34 35 36 37 40 44
14 14 15 15 14 13 13 13 13 12 11 9 8 6 4 4 4 5 6 7 9 11 14 17 20 23 26 29 31 32 33 33 32 33 34 34 35 36
15 15 15 15 14 13 14 14 14 13 11 9 7 5 4 3 3 3 4 6 9 12 15 18 21 24 27 29 31 32 33 33 32 30 30 30 30 30
17 16 15 15 14 14 15 15 14 13 12 10 8 7 6 4 3 1 3 6 9 12 15 18 21 24 27 29 30 30 29 28 29 28 28 27 27 26
19 17 15 15 16 15 15 14 14 13 12 11 10 8 7 6 4 3 3 5 8 11 14 18 21 25 28 30 30 29 26 24 23 23 24 25 25 24
19 17 16 16 16 16 15 14 14 13 13 13 11 10 8 7 6 5 4 5 8 11 14 17 21 24 27 29 30 29 26 23 21 20 20 22 23 23
18 17 17 17 17 16 15 15 15 15 15 14 13 11 9 8 7 6 6 7 9 12 15 18 21 24 27 29 29 29 28 26 23 21 20 19 20 20
18 18 17 17 16 16 16 16 16 16 16 16 15 13 11 10 9 9 10 11 12 14 16 18 21 23 25 26 28 29 28 27 26 25 23 21 19 18
18 17 17 16 15 15 16 16 16 16 17 17 16 16 15 13 13 14 15 16 16 17 17 18 20 22 23 25 26 27 28 28 28 27 26 25 23 21
17 16 15 15 14 14 15 15 15 15 17 18 19 19 19 18 18 18 19 20 20 20 19 18 19 20 22 24 25 27 28 28 29 29 28 26 24 22
17 15 14 14 14 14 15 15 16 17 18 20 21 22 22 22 23 23 23 23 22 20 19 19 19 20 22 24 26 28 29 30 30 30 30 29 27 25

GEFSNE_500_meanwind_018.txt.gz
Wind_Speed
28 28 30 33 34 36 36 37 37 37 37 36 35 36 36 35 34 35 34 33 33 32 31 31 32 34 36 38 39 41 41 41 40 38 37 36 35 36
27 27 27 30 32 33 35 36 37 37 37 36 36 36 34 32 30 31 31 31 32 32 31 29 28 32 35 37 38 40 40 40 40 39 38 38 37 36
27 26 25 26 29 31 32 34 35 35 35 35 36 34 32 30 29 28 29 29 29 28 27 27 28 29 31 34 37 40 41 41 42 42 40 40 40 40
27 25 24 24 25 27 30 31 32 33 33 34 34 33 31 30 30 28 28 27 27 27 28 29 30 31 32 34 37 40 41 42 43 42 41 40 40 41
28 26 24 23 23 24 26 27 29 30 30 31 32 32 31 31 31 31 29 27 27 27 27 27 29 29 30 32 35 38 40 41 42 41 41 41 41 41
28 26 24 22 21 21 23 24 26 28 28 29 30 30 31 30 30 29 27 26 25 24 24 23 24 24 24 24 25 27 29 32 33 35 36 38 39 41
28 26 24 21 20 20 21 23 25 26 27 27 28 27 29 29 28 27 26 24 22 21 19 18 17 17 16 17 18 20 22 24 26 28 31 33 35 38
28 26 24 21 19 21 23 24 25 26 27 27 28 29 30 29 28 25 22 20 18 17 15 14 14 15 16 18 20 21 23 25 26 28 31 33 35 37
28 26 24 22 21 21 23 24 26 28 29 28 29 28 27 24 22 19 18 16 15 14 14 14 15 16 18 19 20 21 23 24 26 29 31 34 36 38
29 27 25 22 21 21 22 24 25 26 28 28 27 25 22 19 18 17 17 16 14 14 14 14 15 16 17 18 19 21 22 24 27 29 32 35 37 40
30 28 25 22 22 21 22 23 24 25 25 24 23 20 19 18 18 16 15 14 13 14 14 14 14 15 15 16 18 19 21 23 26 29 32 35 38 41
31 28 26 23 22 22 21 23 23 23 22 21 21 20 19 18 16 15 14 13 13 12 12 12 12 12 12 14 16 18 20 22 25 28 32 35 39 42
32 29 26 24 22 22 22 23 22 22 21 21 20 19 18 16 15 14 13 12 11 10 9 9 9 9 11 12 14 16 19 22 25 27 30 33 36 39
31 28 26 24 23 23 23 23 22 21 20 20 18 17 16 15 14 13 12 10 9 8 8 7 7 8 10 11 13 15 18 21 24 26 28 30 32 34
31 28 25 24 24 24 24 23 23 22 21 19 18 16 15 14 13 12 11 10 10 8 8 7 8 8 9 11 13 15 18 21 23 26 28 30 32 33
29 27 25 23 24 24 23 23 23 22 20 19 17 16 15 14 13 13 12 11 10 9 8 8 8 9 11 12 13 16 18 21 23 26 28 31 32 33
29 27 25 24 25 24 23 23 23 22 20 18 17 16 15 14 13 13 12 12 11 11 10 11 11 11 11 12 14 15 17 20 22 25 28 30 32 33
30 28 26 25 25 23 22 22 22 21 20 18 17 16 16 15 14 14 13 14 13 13 14 14 14 13 13 14 14 15 17 19 22 25 27 30 32 33
30 28 27 26 25 24 23 22 22 21 19 18 18 17 17 16 16 15 16 16 16 16 16 16 16 16 16 16 16 17 18 20 23 26 28 30 32 34
30 29 28 27 26 24 23 22 21 20 19 18 18 18 18 18 18 18 18 19 19 19 19 19 19 19 19 19 19 19 20 21 23 26 28 30 33 35
30 30 28 27 26 25 23 22 21 20 20 19 19 19 19 20 20 20 21 21 22 22 22 21 22 22 22 22 21 21 21 23 25 27 28 31 33 35
31 30 28 26 25 24 23 21 20 20 19 19 20 20 20 20 21 22 23 24 25 25 25 25 25 24 23 23 23 23 24 25 26 27 29 31 33 35
30 29 27 26 25 23 21 20 19 19 19 19 19 20 20 21 22 23 24 26 26 26 27 26 26 26 25 25 25 25 26 28 29 31 32 33 35 37

GEFSNE_500_meanwind_024.txt.gz
Wind_Speed
29 28 26 25 24 24 23 23 23 23 26 27 27 28 29 28 28 27 26 26 27 28 28 28 29 29 29 29 28 29 30 31 31 32 35 37 41 43
31 29 27 25 24 23 22 22 22 22 24 25 26 28 29 29 29 28 27 27 28 28 28 28 28 28 27 27 27 27 26 26 29 31 33 36 38 41
31 29 27 25 24 23 22 21 21 20 21 23 25 27 28 29 29 28 28 29 28 28 27 26 26 26 25 25 25 24 24 24 24 26 29 33 36 38
32 30 28 26 24 23 21 20 20 20 20 21 24 26 27 28 28 29 29 28 28 27 26 25 24 23 23 23 22 22 22 22 22 23 25 28 31 34
35 32 30 28 25 23 21 20 19 19 19 20 23 25 26 26 27 27 26 26 25 25 25 24 22 21 21 20 21 21 22 22 22 22 23 25 27 30
37 35 32 29 26 23 21 20 19 19 19 19 21 23 24 24 25 26 25 24 24 23 24 23 22 22 21 20 20 20 20 20 21 22 23 24 27 29
40 37 34 30 27 24 21 19 18 18 18 19 20 22 23 24 24 25 25 26 24 23 22 22 20 19 19 19 18 18 18 17 17 18 19 21 22 25
42 39 35 31 27 24 21 20 19 18 19 18 19 20 22 23 23 23 24 25 24 22 20 19 18 17 16 16 15 14 13 12 12 12 13 14 16 17
44 41 36 32 28 25 22 21 20 18 18 18 19 21 22 24 24 24 24 24 23 20 18 17 17 16 14 13 13 12 11 12 12 12 13 13 14 16
46 43 38 33 29 26 24 22 21 19 18 18 19 21 22 22 22 23 23 23 22 20 18 16 15 14 13 12 12 11 11 11 11 11 12 13 14 15
46 43 39 34 30 27 25 23 22 21 20 19 20 20 21 23 23 23 23 22 20 18 17 15 14 13 12 12 11 10 10 10 10 10 10 11 13 14
44 41 38 34 31 29 27 25 23 22 20 19 19 20 21 22 22 21 21 20 18 16 15 14 13 13 11 11 10 9 8 8 8 8 9 11 13 15
45 41 37 35 32 31 29 27 25 23 21 20 19 20 21 21 21 20 19 18 16 15 14 14 13 12 11 10 9 8 7 6 7 8 9 11 13 15
44 41 36 34 33 31 29 28 27 25 22 21 20 20 20 20 21 21 19 17 16 15 15 14 13 12 10 9 8 7 7 7 8 9 10 12 14 16
44 40 36 34 33 31 30 28 27 24 22 21 20 19 20 20 20 19 17 16 16 15 15 14 13 11 10 9 9 8 9 9 10 12 13 14 15 17
44 42 39 36 34 32 29 27 26 24 21 20 19 19 19 19 19 17 17 16 16 16 15 14 12 11 11 10 10 11 11 12 14 15 16 17 19 20
45 42 39 36 33 30 28 26 25 23 21 20 19 19 18 18 18 17 18 18 17 15 14 13 12 12 11 12 13 14 15 16 18 19 20 21 22 23
44 41 38 35 31 29 27 26 24 22 21 21 20 20 19 19 19 19 19 18 17 15 14 12 12 13 14 15 16 17 19 20 21 22 24 25 26 26
43 40 37 34 31 29 27 25 24 22 22 22 21 21 20 20 20 19 19 17 16 14 13 13 14 15 16 18 19 21 22 23 24 26 27 28 29 30
42 39 35 32 29 27 26 24 23 23 23 23 22 21 21 21 20 20 18 17 15 14 14 15 16 18 19 21 22 24 25 26 27 29 30 31 32 33
38 36 33 31 29 27 25 24 24 24 24 24 22 21 21 21 21 19 18 16 15 15 16 17 19 21 22 24 25 27 28 29 30 31 32 33 33 33
35 33 31 30 28 26 25 25 25 24 24 23 22 21 21 21 20 19 17 16 16 17 19 20 22 24 26 27 28 28 29 30 31 32 32 33 33 33
32 31 29 28 26 26 26 25 25 24 23 22 21 21 20 20 19 18 17 17 18 19 21 23 25 26 27 28 29 29 29 29 30 30 31 31 31 31

GEFSNE_500_meanwind_030.txt.gz
Wind_Speed
34 33 31 29 27 26 25 23 22 21 23 22 20 20 21 23 23 24 24 23 23 23 23 23 23 24 25 26 26 27 28 29 29 30 30 31 31 32
38 36 34 32 30 29 27 26 23 21 21 22 21 20 21 22 23 24 24 25 25 25 25 24 25 25 25 26 26 26 27 27 27 28 29 29 30 30
42 40 38 35 33 31 29 28 25 23 21 22 21 21 20 21 23 24 25 26 26 26 25 25 26 25 26 26 26 25 25 26 27 27 27 27 28 29
45 43 41 39 36 34 32 30 27 24 22 22 22 21 21 21 22 24 25 26 26 26 26 26 26 26 25 25 25 24 25 25 26 26 26 27 27 27
49 46 44 41 38 36 34 32 29 26 23 23 23 21 21 20 21 23 24 25 25 25 26 26 25 25 25 24 24 23 23 24 24 24 25 26 25 26
52 49 47 44 41 39 36 34 32 29 25 24 23 21 20 20 21 22 23 24 23 23 23 23 22 22 23 22 22 23 23 23 23 23 24 25 25 25
55 52 49 46 43 40 38 36 33 30 27 25 23 22 20 20 20 20 21 21 21 21 22 21 21 20 21 21 21 22 22 22 22 22 23 23 24 24
57 54 51 48 45 42 40 37 35 31 28 25 24 22 21 20 19 19 20 20 20 21 21 21 21 20 20 21 21 22 22 22 22 22 21 22 22 22
59 56 52 49 46 44 42 39 36 33 29 26 24 22 20 19 18 19 19 19 19 19 19 20 21 21 20 20 20 20 20 20 20 19 19 18 18 18
62 58 54 51 48 45 43 40 37 34 30 27 24 22 21 20 19 19 19 19 19 18 18 19 19 20 21 20 20 19 19 18 17 17 16 16 15 15
62 61 57 52 49 46 44 41 38 34 31 28 26 23 21 20 19 19 19 19 19 18 18 18 18 19 20 20 20 19 18 17 17 16 16 15 14 14
57 59 58 54 50 47 44 41 38 35 31 29 26 24 21 19 19 19 19 19 19 18 18 18 19 20 20 20 19 19 18 17 16 16 15 15 14 14
50 55 57 55 51 48 44 42 39 36 33 30 27 24 21 19 19 18 18 18 19 19 18 18 18 19 20 19 19 18 17 17 16 16 15 14 14 14
44 49 53 54 51 48 45 43 40 37 34 31 27 24 22 20 19 18 17 17 17 17 18 18 18 19 20 19 19 18 17 17 16 16 15 14 13 13
41 46 50 51 49 47 44 42 39 37 34 31 27 24 22 20 18 18 18 18 17 17 18 19 19 20 20 19 19 18 18 17 16 16 15 14 14 14
40 45 49 50 47 45 43 40 38 35 33 30 27 24 22 19 18 18 19 19 19 19 19 20 20 20 20 20 19 19 18 17 16 16 16 16 16 18
40 46 50 51 47 45 42 40 38 35 32 28 25 23 21 20 20 20 20 20 20 20 20 20 21 21 20 19 19 18 17 17 16 17 17 19 20 21
39 47 51 50 48 45 43 40 37 33 30 27 24 23 21 21 20 20 21 20 20 21 21 22 22 21 21 20 19 18 18 18 18 19 21 22 24 26
40 50 51 49 48 46 43 40 35 32 29 26 24 23 22 21 21 21 21 21 21 22 23 23 23 22 21 20 19 19 19 20 21 22 24 26 28 30
40 49 50 49 47 44 41 39 35 31 28 26 24 23 22 21 21 21 22 22 23 24 24 23 23 22 21 20 20 20 21 22 23 25 27 29 31 32
39 48 49 49 48 44 40 37 34 30 28 26 25 23 22 22 22 23 23 23 24 24 24 23 22 21 21 21 21 21 22 24 26 27 29 30 31 32
39 45 47 48 45 41 38 35 32 30 28 26 25 24 23 23 23 24 25 25 25 25 24 23 22 22 22 22 22 23 25 26 28 29 30 31 31 32
37 41 43 43 42 39 36 33 31 29 28 26 25 24 24 24 25 26 26 26 25 24 23 23 23 23 23 23 24 25 27 28 28 29 30 30 30 31

GEFSNE_500_meanwind_036.txt.gz
Wind_Speed
42 42 41 39 36 35 33 32 30 28 27 25 23 22 21 20 19 18 18 20 20 21 23 24 25 25 26 26 26 27 28 29 30 31 32 33 34 35
45 44 44 43 41 38 36 35 33 31 29 27 25 23 22 21 20 19 18 18 19 20 21 22 23 23 24 23 24 25 25 26 28 29 30 31 33 33
49 48 47 46 44 42 40 38 35 33 31 29 27 25 23 22 21 19 18 18 19 20 21 22 23 24 25 25 25 25 25 25 26 27 28 29 30 31
55 53 51 50 48 46 43 41 38 36 34 31 29 27 25 23 21 20 19 18 19 21 22 23 24 25 26 26 26 26 26 26 26 26 27 28 29 30
60 58 55 54 52 49 47 45 42 39 36 34 31 28 26 24 22 20 19 19 20 21 23 24 26 26 27 27 26 26 26 26 26 26 27 27 27 28
65 62 59 56 54 52 51 48 45 42 39 36 33 31 28 26 24 21 20 20 20 21 23 24 25 26 27 27 28 27 27 26 27 27 26 27 27 27
69 66 63 60 56 54 53 51 48 45 42 39 35 32 29 27 24 22 20 20 20 21 23 24 25 26 27 27 27 27 27 27 26 26 26 26 26 26
71 69 66 64 60 57 55 53 50 47 43 40 37 33 31 28 25 23 21 20 20 20 21 22 24 25 26 26 26 26 26 25 25 26 25 25 25 25
68 68 67 67 64 57 55 54 52 49 46 42 38 35 33 30 27 24 22 21 21 21 21 22 23 23 24 25 25 24 24 24 24 24 24 24 24 23
57 63 65 65 65 63 58 54 52 49 46 44 40 37 34 31 28 25 23 21 21 21 22 21 22 23 24 24 23 24 23 23 23 23 23 22 22 22
46 52 58 61 61 61 58 55 52 50 47 44 41 38 36 33 29 26 23 21 20 21 21 21 21 22 23 23 23 23 23 23 22 22 22 21 20 20
40 44 49 55 58 58 57 55 53 51 49 45 42 39 36 33 30 27 25 23 21 21 21 21 21 22 22 22 22 22 22 22 22 21 20 20 19 19
36 38 42 47 52 55 56 55 52 50 49 46 43 40 37 33 31 28 26 24 23 23 22 22 22 22 22 22 21 21 21 21 21 20 19 18 18 17
35 35 37 41 46 51 55 56 54 51 49 47 44 41 38 34 31 29 27 26 25 24 23 23 23 22 22 21 21 20 20 19 19 19 18 17 17 17
33 34 35 37 42 48 53 55 54 51 48 47 44 41 37 34 32 30 28 26 25 24 23 22 22 22 21 20 19 19 18 18 18 18 18 17 17 16
31 31 32 35 38 44 51 54 52 51 48 45 43 41 38 36 33 31 29 27 25 24 23 22 22 21 20 19 18 18 18 18 18 18 18 17 17 16
30 29 30 33 37 41 47 51 52 50 48 46 43 41 39 37 34 31 29 27 26 24 24 22 21 20 18 18 18 18 19 19 19 19 18 18 18 17
29 28 29 32 37 40 45 50 51 49 47 45 42 40 38 36 33 31 29 27 26 25 23 22 21 20 19 18 18 19 19 19 19 19 19 18 18 19
29 28 30 33 36 39 44 49 51 50 47 45 42 40 37 36 34 31 29 28 26 25 24 23 22 21 20 20 20 21 21 21 21 20 20 20 20 20
28 29 31 34 36 39 45 50 50 48 46 44 41 39 37 34 33 31 30 29 28 26 25 23 22 22 21 22 22 22 23 22 22 21 21 21 22 23
27 30 31 33 37 40 47 51 49 47 45 41 39 37 36 34 33 31 30 29 28 26 25 24 23 23 22 22 23 23 23 23 22 22 22 22 24 25
25 27 28 32 36 41 46 50 47 45 43 40 38 36 35 34 32 30 29 28 28 27 26 24 23 23 23 23 24 24 24 24 23 24 24 25 27 28
22 24 27 32 37 42 46 47 45 43 41 38 37 35 33 32 30 30 29 28 27 26 24 23 23 24 24 24 24 24 24 25 25 26 27 28 30 31

GEFSNE_500_meanwind_042.txt.gz
Wind_Speed
47 45 45 44 44 43 43 41 39 37 35 33 31 28 26 23 21 19 17 17 17 17 18 19 21 22 24 26 27 27 28 28 29 29 30 32 35 37
51 50 48 47 47 46 45 44 42 40 37 35 33 31 28 25 22 20 18 17 17 18 18 18 19 21 23 24 26 26 26 26 26 26 28 29 31 32
56 55 53 51 49 49 48 47 45 43 41 38 36 33 30 27 24 22 19 18 18 18 18 18 19 19 20 22 23 24 25 24 24 25 25 25 27 27
62 60 58 54 53 51 50 49 48 46 44 42 39 36 33 30 27 24 21 19 18 18 18 18 18 19 19 20 20 22 23 22 22 22 23 23 23 23
67 66 63 60 56 54 53 51 50 49 47 45 42 39 37 33 30 27 24 22 20 19 18 18 18 19 20 20 20 21 21 21 20 20 20 20 21 22
70 69 69 66 63 59 56 54 53 52 50 48 46 42 39 36 33 29 27 25 22 21 20 19 19 20 21 21 21 21 21 21 21 21 21 21 21 22
70 71 71 71 70 65 60 57 55 53 52 50 49 46 42 39 36 33 29 27 25 22 21 20 20 20 21 22 22 22 22 22 22 22 23 22 22 23
67 69 72 73 72 71 67 62 58 55 53 52 51 48 45 42 39 36 32 29 26 24 22 21 21 21 21 22 22 22 22 22 22 23 23 23 23 23
64 65 68 71 73 73 70 67 62 58 56 54 52 51 48 45 42 39 36 32 29 26 24 22 21 21 21 21 21 22 22 22 22 22 23 22 23 23
59 60 61 65 69 72 72 70 66 63 59 56 54 51 50 48 46 43 39 35 31 28 25 23 23 22 21 20 20 21 21 21 21 22 22 22 22 22
55 55 55 57 61 67 71 70 68 65 62 59 56 53 52 50 47 44 40 37 33 29 27 25 24 23 22 21 21 21 20 20 20 20 21 21 22 22
50 50 50 52 54 58 64 68 69 66 61 60 58 55 52 50 48 45 42 39 36 32 28 26 25 24 23 22 21 21 20 20 20 20 20 21 21 21
46 46 46 47 49 51 56 62 66 68 65 59 57 57 54 51 49 45 42 40 37 33 30 28 26 25 24 23 22 21 20 20 19 19 20 20 20 20
41 42 43 42 44 47 50 55 60 64 66 61 56 53 52 51 50 47 43 41 38 34 32 29 27 26 25 24 22 21 21 20 20 20 20 20 21 20
37 39 40 40 40 42 45 48 52 56 60 61 57 51 49 49 49 47 44 41 39 35 32 30 28 27 26 24 23 23 22 22 22 21 21 21 21 21
34 35 37 37 38 38 39 42 46 49 53 55 56 53 50 47 45 46 44 41 39 36 33 31 29 28 27 25 24 24 23 22 22 21 21 21 21 21
31 32 34 35 35 35 35 37 40 44 48 51 52 53 51 47 45 45 44 41 39 36 34 32 30 29 27 26 25 24 23 22 22 21 21 21 20 20
29 30 31 33 34 34 34 34 37 41 45 48 50 50 50 48 46 45 44 42 39 37 35 33 31 30 28 26 25 24 23 23 22 21 21 21 21 21
27 28 29 31 31 32 33 34 36 40 45 47 48 48 48 48 46 45 43 41 39 37 35 33 31 30 28 27 26 25 24 23 22 22 21 21 21 21
24 26 27 29 30 31 31 33 35 39 44 47 48 47 47 47 46 44 42 41 39 37 35 32 31 30 28 27 26 25 24 23 23 22 22 22 22 22
23 25 26 27 28 29 30 32 34 38 44 45 47 49 48 46 45 43 42 40 38 36 34 32 31 30 29 28 27 26 25 24 23 23 24 24 24 25
22 23 24 25 25 27 28 30 35 39 44 45 46 48 48 45 44 43 41 39 37 35 33 32 32 30 29 28 27 27 26 25 25 25 25 26 26 27
21 22 23 23 23 25 27 29 33 39 43 44 46 46 46 45 44 42 40 39 37 35 33 32 31 30 29 29 28 27 27 26 26 26 26 27 28 28

GEFSNE_500_meanwind_048.txt.gz
Wind_Speed
45 45 44 43 40 40 41 41 40 39 39 38 37 37 35 33 32 29 26 23 20 18 16 14 13 13 12 13 15 17 18 20 21 22 24 25 27 28
46 47 47 48 45 43 42 42 42 42 41 41 39 39 37 36 34 32 29 26 23 20 17 16 14 13 13 13 14 15 16 18 19 21 22 23 24 25
48 48 50 50 49 47 45 44 44 44 43 43 41 41 40 38 36 34 32 29 25 22 19 17 15 14 13 13 14 14 16 17 18 19 20 21 22 23
53 52 52 52 51 50 48 47 46 45 45 44 43 43 42 41 39 37 35 32 28 25 21 18 16 14 13 13 13 14 15 15 16 17 18 20 21 21
57 57 56 55 54 53 51 50 48 47 46 46 45 45 44 43 42 40 37 34 31 27 23 20 17 15 13 13 13 13 14 14 15 15 16 18 19 19
59 59 59 59 57 57 54 53 52 49 48 49 48 47 47 46 44 41 39 37 34 30 26 22 18 16 14 13 13 13 13 14 15 15 16 16 17 17
58 58 60 61 60 60 58 56 55 53 51 50 49 48 48 47 45 43 41 39 37 33 29 25 21 18 15 14 13 13 14 14 15 15 15 15 16 16
55 57 58 60 61 63 61 59 59 57 54 52 50 49 49 48 48 46 44 42 39 36 32 28 24 20 17 15 14 14 14 14 15 15 15 15 16 17
52 54 55 58 60 62 63 62 62 60 57 55 52 48 48 49 49 48 47 44 42 38 35 30 26 24 20 17 15 15 15 15 15 15 16 16 17 17
48 52 53 55 57 60 62 63 63 62 59 56 54 52 50 49 49 50 49 47 44 41 37 33 29 26 23 19 17 16 16 15 15 15 15 16 16 17
43 47 50 52 53 55 58 61 62 63 62 58 56 54 51 50 49 50 49 47 44 42 39 35 32 29 25 22 20 18 17 16 16 15 15 15 16 17
37 41 45 47 49 51 53 57 59 60 61 60 57 56 53 51 49 49 48 47 45 43 41 38 35 31 28 25 23 20 18 17 16 16 16 16 16 16
31 36 41 43 44 46 49 52 55 57 58 59 57 55 55 53 50 49 48 46 46 43 42 40 38 34 31 28 25 22 20 19 18 17 16 16 16 16
26 31 36 39 40 42 44 47 50 53 55 56 56 55 55 53 51 49 48 45 45 44 43 41 39 36 33 30 27 24 22 20 19 18 17 16 16 16
22 27 31 34 36 38 39 42 45 48 51 53 53 53 52 52 51 50 48 46 44 43 43 41 40 38 35 32 29 26 24 22 20 19 19 18 18 18
20 23 27 30 33 33 35 37 40 43 46 48 49 50 51 52 50 48 47 47 46 44 42 41 40 38 36 34 31 27 25 23 22 20 20 20 19 18
19 22 24 27 29 30 31 32 35 39 42 43 45 46 46 47 48 47 46 45 45 44 43 41 38 37 37 34 31 29 27 25 23 22 21 20 20 19
18 21 23 25 26 28 28 30 32 35 38 39 42 44 44 44 45 46 46 46 43 42 42 42 40 38 35 34 32 30 28 26 24 23 22 22 21 21
18 20 23 24 24 25 26 28 29 32 34 36 38 40 43 44 45 45 45 43 43 41 41 40 40 38 35 33 32 31 29 27 25 24 23 22 21 21
17 20 22 22 23 24 25 27 28 30 32 34 36 38 40 42 43 43 44 43 43 42 39 38 38 37 35 34 33 31 29 27 26 25 23 22 21 21
16 19 20 21 22 23 24 26 27 29 30 33 35 36 38 39 40 41 42 42 41 40 38 36 35 37 38 36 34 31 29 28 26 25 24 23 22 21
14 17 19 20 21 23 24 25 26 27 29 31 33 34 37 39 41 41 41 42 41 40 39 37 37 38 38 35 34 32 30 28 27 26 25 24 23 22
12 14 17 19 20 21 22 24 25 26 28 31 32 33 36 38 39 40 41 41 41 41 40 39 39 38 37 35 33 31 30 29 27 27 26 25 24 24

GEFSNE_500_meanwind_054.txt.gz
Wind_Speed
36 36 37 37 37 38 38 38 37 36 36 36 37 38 39 40 40 40 39 38 36 35 33 30 28 26 25 23 22 21 20 20 20 21 21 22 24 24
39 38 39 39 39 39 40 40 40 38 37 38 38 39 41 42 42 42 41 40 38 36 34 31 29 27 25 23 22 20 20 19 19 20 20 21 22 23
41 41 41 41 41 41 41 41 41 41 40 38 39 40 42 44 44 43 42 41 40 38 36 33 31 28 25 23 21 20 19 18 18 19 19 20 20 21
43 43 43 43 44 43 43 43 44 44 41 40 40 41 43 45 45 45 44 44 42 40 38 35 32 29 26 24 22 20 19 18 18 18 18 19 20 21
45 46 46 46 47 47 46 46 46 46 45 43 42 43 44 46 47 47 47 46 45 42 40 37 34 31 28 24 22 21 19 18 18 17 17 17 18 19
46 47 48 49 49 50 50 50 50 49 48 47 44 44 45 47 48 48 49 48 47 45 42 39 36 33 29 26 23 21 20 18 17 16 16 16 16 17
47 48 49 50 51 52 53 54 54 53 51 50 48 47 46 48 48 49 50 50 49 47 44 41 38 35 32 28 25 23 21 19 17 16 15 15 15 16
46 47 48 50 51 53 55 57 58 57 55 53 52 50 48 48 50 50 52 51 50 49 46 44 41 37 34 30 27 24 21 19 18 16 15 15 15 15
43 44 46 49 51 53 56 58 60 60 59 57 55 52 50 50 51 52 52 52 51 50 49 46 43 40 36 32 29 25 23 21 19 17 16 15 15 15
38 40 43 46 49 52 55 59 60 61 61 60 58 56 53 51 50 51 53 53 53 53 52 49 46 42 39 35 31 28 24 22 20 18 17 16 15 14
35 37 40 43 46 50 54 57 60 62 63 63 61 60 57 54 52 53 54 55 55 53 51 49 47 44 41 37 34 30 27 24 22 20 18 17 16 15
31 34 37 40 44 47 52 56 58 60 63 63 63 61 59 56 54 53 52 53 54 53 51 50 48 46 43 40 36 33 29 26 24 22 20 19 18 17
28 30 32 36 40 44 48 53 56 59 62 63 63 63 60 58 56 54 53 52 53 53 52 51 49 48 46 42 39 36 32 29 26 24 22 20 19 18
23 24 27 31 36 40 45 49 54 57 60 63 64 63 61 59 57 55 53 52 52 53 55 55 52 50 48 45 42 38 35 31 29 26 24 22 20 19
15 17 21 26 31 36 41 46 50 54 57 61 63 62 61 59 58 58 55 54 53 53 54 55 54 52 49 47 44 40 37 34 31 29 26 23 21 20
10 13 17 21 26 32 38 43 47 51 54 57 60 61 60 60 58 57 56 54 53 53 54 54 54 52 50 48 45 41 39 36 33 31 28 26 24 23
8 10 13 17 22 28 34 39 44 48 52 54 57 59 59 60 57 56 55 54 52 51 52 53 53 52 51 49 46 43 40 38 36 33 30 28 26 25
6 9 13 17 20 25 30 35 40 45 48 51 54 56 58 58 57 54 52 54 53 51 50 50 50 50 49 48 46 43 41 39 37 34 32 29 28 27
5 8 13 17 20 23 27 32 36 40 44 48 51 54 56 57 56 55 53 53 51 50 49 49 49 48 46 45 43 43 41 40 38 36 34 32 30 28
5 8 11 15 19 22 26 29 33 36 40 45 48 51 53 55 55 54 53 53 52 49 48 48 47 46 45 44 44 44 43 40 38 36 35 33 31 29
4 8 11 14 18 20 23 27 30 33 36 41 45 48 49 52 53 53 53 52 51 49 47 46 45 45 46 46 46 44 43 41 39 36 35 33 31 30
4 7 11 14 16 19 21 24 26 30 34 38 42 45 48 49 51 53 53 52 50 49 47 47 47 46 44 44 44 43 41 40 38 37 35 33 32 32
5 7 10 12 14 17 19 21 24 28 31 35 39 43 46 47 49 50 50 50 50 49 47 47 46 45 44 43 42 42 41 40 38 37 35 34 34 33

GEFSNE_500_meanwind_060.txt.gz
Wind_Speed
38 38 39 39 39 39 38 38 38 39 39 39 39 40 40 41 42 43 44 44 43 42 41 40 38 37 35 34 32 31 29 27 27 26 25 25 25 25
38 39 40 40 40 40 40 40 40 40 40 41 40 41 41 40 42 43 44 44 44 43 42 41 39 38 36 34 33 31 29 28 27 25 24 24 24 23
39 39 39 40 41 41 42 42 41 41 40 41 42 42 42 42 43 44 45 45 44 43 43 42 40 39 37 35 33 31 30 28 27 25 24 23 23 22
39 39 40 41 42 42 42 43 43 43 42 42 43 43 44 43 44 45 46 46 45 45 44 43 41 40 38 37 34 32 30 29 27 26 24 23 22 22
38 39 40 41 42 43 44 44 45 45 44 43 44 44 44 45 45 45 47 48 47 46 45 45 44 41 40 38 35 33 31 30 28 26 24 23 22 21
38 39 40 41 42 44 45 45 46 47 47 46 46 46 46 46 45 46 47 48 48 48 47 46 45 43 41 39 37 35 32 30 28 26 24 23 22 21
37 38 40 41 42 44 45 46 47 48 48 48 49 49 48 47 47 46 47 49 50 50 50 48 46 44 43 41 38 36 33 31 29 27 25 23 21 20
38 39 40 41 42 44 45 47 48 49 49 49 50 51 49 51 49 46 47 48 50 51 51 50 48 46 44 42 40 38 35 32 30 27 25 23 21 19
37 38 39 40 41 43 45 47 49 51 52 52 51 52 51 52 52 49 47 47 50 52 53 52 51 48 46 44 42 39 36 34 31 28 25 23 21 19
37 38 38 39 40 42 44 46 49 52 53 54 53 54 55 53 53 51 49 48 50 52 54 53 52 50 48 46 43 41 38 35 32 29 26 23 21 20
36 37 37 38 39 41 43 45 48 51 54 55 56 56 57 57 55 53 52 51 50 51 53 54 53 51 50 48 45 42 39 36 33 30 27 25 23 21
34 34 35 36 37 39 42 44 46 50 54 56 57 57 58 59 56 55 54 53 51 50 52 54 55 53 51 49 47 44 41 38 35 32 29 27 24 22
31 31 31 33 34 36 39 42 46 49 53 56 57 59 60 60 59 57 55 55 53 50 52 54 55 55 52 50 48 46 43 40 37 35 32 28 26 24
28 28 28 30 32 34 37 40 44 47 51 54 57 58 60 61 60 58 56 56 54 51 52 53 55 56 54 52 50 48 46 43 40 37 34 30 28 25
25 25 25 26 27 29 33 36 41 45 48 52 55 57 59 61 62 60 58 58 55 54 54 54 56 56 56 55 53 51 48 46 43 40 36 33 30 27
23 22 22 21 22 24 27 30 35 41 46 50 53 55 58 60 62 61 59 58 57 56 55 55 56 57 56 57 56 53 51 48 45 42 39 36 32 29
20 18 17 16 17 19 22 25 30 34 40 45 49 52 55 57 60 61 60 59 58 55 56 55 54 55 57 56 57 55 52 49 47 44 41 37 35 31
16 15 13 13 13 13 16 20 24 29 35 40 45 48 52 55 58 59 59 59 57 57 56 56 55 54 55 55 55 54 52 49 47 45 42 39 37 34
14 13 11 10 9 9 12 16 21 25 30 35 40 44 48 52 55 57 57 58 57 57 55 55 55 53 52 53 53 52 50 49 47 45 43 41 39 36
13 11 10 8 7 7 9 12 17 22 26 31 35 39 44 48 52 54 55 56 56 55 53 54 55 53 50 51 51 51 50 48 47 46 45 43 41 37
13 10 8 7 5 5 6 9 14 19 23 27 31 35 40 45 49 52 53 54 55 55 53 53 53 53 51 51 52 52 51 50 49 48 46 44 41 39
11 9 7 5 4 3 4 7 12 15 19 24 28 33 38 42 46 48 51 53 54 53 51 51 52 53 52 50 50 50 51 51 49 48 46 44 42 40
10 7 5 4 2 1 3 6 9 13 16 21 25 31 36 39 42 45 48 51 53 53 51 50 51 51 50 50 50 50 50 49 48 46 45 44 43 41

GEFSNE_500_meanwind_066.txt.gz
Wind_Speed
35 36 37 37 38 39 39 40 41 41 42 42 43 43 43 43 43 44 44 43 43 44 45 45 45 43 43 43 41 39 37 36 34 32 32 31 29 28
35 36 36 37 38 39 39 40 41 42 42 43 43 44 44 44 44 44 44 44 45 45 46 45 45 44 43 43 42 39 37 36 34 33 32 31 30 29
35 36 36 37 38 38 39 40 40 41 42 43 44 43 44 45 45 45 45 45 46 46 46 47 46 45 44 43 43 42 39 37 35 33 32 30 29 28
37 37 37 37 38 39 39 40 41 41 42 43 45 45 44 45 45 45 46 46 45 46 47 47 46 46 45 44 43 42 40 38 36 35 32 31 30 29
37 37 37 37 37 38 40 40 41 42 42 43 45 46 45 45 46 46 45 46 46 46 47 47 47 46 46 45 44 42 41 39 37 35 33 32 30 29
36 36 36 37 37 38 39 40 41 42 43 44 45 47 47 46 46 45 46 47 46 46 47 48 48 47 47 46 45 44 42 40 38 36 34 32 31 30
37 37 37 37 38 39 39 40 41 42 43 44 45 46 48 48 47 46 46 46 46 46 47 48 49 49 48 47 46 45 43 42 39 37 35 34 32 30
36 36 37 37 38 39 40 41 42 43 44 44 45 47 48 49 48 47 47 46 46 47 47 47 49 50 49 48 47 45 44 43 41 39 37 35 33 31
35 35 36 37 37 38 39 40 42 43 44 45 46 47 48 50 50 49 48 47 46 47 48 47 48 49 50 49 48 47 45 44 42 40 38 35 34 32
34 33 34 35 36 37 38 39 40 42 44 45 46 47 49 50 51 51 50 48 46 45 47 47 48 49 51 51 50 48 47 46 44 42 39 37 35 33
33 33 32 33 34 35 37 38 39 41 44 46 47 48 49 51 52 52 52 50 48 46 46 46 48 49 51 52 51 49 48 48 46 43 41 38 36 34
32 32 32 32 33 34 35 37 39 41 43 45 47 48 49 51 53 53 53 52 50 49 47 47 47 48 49 52 52 50 50 50 48 46 43 40 38 35
31 31 31 31 32 33 35 36 37 39 42 44 46 47 49 51 53 54 54 53 52 51 50 49 46 47 47 49 50 51 51 50 49 47 44 41 39 36
29 29 29 29 30 31 32 33 35 36 39 42 45 47 48 50 52 54 55 54 54 53 51 50 48 47 46 48 49 51 52 52 51 48 45 43 40 38
28 27 27 27 27 27 28 29 31 34 36 39 42 44 47 49 52 53 54 55 55 54 52 50 49 48 46 47 49 51 52 52 51 49 46 44 42 39
26 26 25 24 24 23 23 24 26 30 33 37 40 43 46 49 51 53 53 55 56 55 54 52 50 49 47 47 49 50 52 53 52 50 48 46 43 41
25 24 23 21 20 21 21 21 23 26 29 33 37 41 44 47 50 52 53 54 55 55 54 53 52 50 49 48 49 51 51 53 53 53 51 48 45 42
23 22 20 19 19 19 19 20 21 23 26 29 33 38 42 46 49 51 52 53 54 55 55 54 53 52 50 49 50 52 51 52 53 53 52 49 46 43
22 21 19 18 17 17 18 18 19 20 22 25 29 34 38 43 47 50 52 52 52 54 54 54 54 53 52 49 49 51 52 52 52 52 52 50 47 44
21 20 19 17 16 16 16 16 16 17 19 22 25 29 35 39 44 48 50 51 52 52 53 53 54 53 52 50 49 49 51 52 52 52 52 51 48 45
20 19 18 16 15 14 13 13 13 14 17 20 23 26 31 37 41 45 48 50 51 52 52 51 52 54 53 52 52 50 52 54 53 52 52 52 49 46
20 18 17 15 13 12 11 10 10 11 13 17 20 24 27 32 38 42 45 48 49 50 51 51 52 54 53 51 51 51 52 52 54 53 53 53 51 47
19 17 15 13 11 10 9 8 8 9 11 14 18 22 25 29 34 38 43 46 48 48 49 51 51 52 53 52 50 51 51 51 52 53 52 51 50 49

GEFSNE_500_meanwind_072.txt.gz
Wind_Speed
33 34 34 34 34 35 35 36 37 37 38 39 39 40 40 40 40 40 41 42 42 41 41 43 43 43 42 43 43 44 43 43 41 39 37 36 34 31
35 35 36 36 37 37 37 37 37 38 38 40 41 41 41 42 41 40 40 42 43 43 42 42 43 44 43 43 43 44 44 44 43 42 40 38 35 33
37 37 37 38 38 38 39 39 39 39 39 39 41 42 42 42 42 42 42 42 43 43 43 43 44 45 44 43 43 44 44 44 43 42 41 39 36 34
37 37 37 38 38 39 39 39 39 40 40 40 41 42 42 42 42 42 43 43 43 44 44 44 44 45 45 45 43 44 44 44 44 43 42 40 38 36
37 37 37 38 38 38 39 39 39 40 40 40 40 41 42 42 42 42 42 43 44 44 44 45 45 45 45 46 45 44 44 44 45 45 44 42 39 36
37 37 37 37 37 37 38 39 39 40 40 40 39 40 41 42 42 43 43 43 43 44 44 45 45 45 46 46 45 45 45 44 44 44 43 42 40 37
36 36 36 36 36 36 37 38 39 39 39 40 39 39 40 42 42 43 43 43 43 43 44 44 45 45 46 46 46 45 45 44 44 43 42 41 40 38
36 35 35 35 35 35 36 36 37 38 38 39 39 39 40 41 43 43 43 43 43 44 44 44 45 46 47 46 46 45 45 45 45 44 43 42 41 39
36 35 34 34 34 34 34 35 35 36 37 38 38 39 40 41 42 43 43 43 43 43 44 43 44 45 47 46 46 46 45 45 45 45 44 43 41 40
35 34 33 33 33 33 33 33 33 34 35 36 36 37 39 40 42 42 43 43 43 44 44 43 43 44 45 46 46 46 46 45 45 46 45 44 42 41
35 34 33 33 32 32 32 32 32 33 34 35 35 36 38 39 41 42 43 43 43 44 44 43 43 43 44 45 46 46 46 47 46 45 46 45 43 42
35 34 33 33 32 32 32 32 32 33 34 35 35 36 38 39 40 42 43 44 43 44 45 44 44 45 44 44 45 46 47 47 47 46 46 46 45 44
34 33 32 32 31 31 31 31 31 32 33 35 36 37 38 39 40 41 43 44 44 44 45 46 45 46 45 44 44 46 47 48 48 48 48 47 46 45
33 32 31 31 30 30 30 30 30 31 32 33 35 36 37 38 39 41 42 43 45 45 45 46 46 45 45 45 44 44 45 47 49 48 49 47 47 46
32 31 31 30 29 29 29 29 29 28 29 30 32 33 34 36 38 40 41 42 44 45 46 46 46 47 46 45 44 45 46 47 48 48 49 49 49 48
32 31 30 29 28 27 27 26 26 27 26 26 27 29 31 33 35 38 40 42 43 44 45 46 46 46 46 45 45 45 46 46 47 49 50 50 50 50
31 30 28 27 27 26 25 25 24 24 24 24 25 27 28 31 33 36 38 41 42 43 44 46 46 46 46 46 45 45 44 45 45 47 50 50 50 50
30 29 28 27 26 26 25 24 23 23 23 23 23 24 26 29 31 33 36 39 41 42 44 45 46 47 47 45 43 43 44 44 44 46 49 50 51 50
29 28 27 26 25 25 24 24 23 22 21 21 21 22 24 26 29 31 34 37 40 42 44 45 46 47 46 45 43 44 42 42 43 45 47 49 51 51
28 27 26 25 25 25 24 23 22 22 21 21 21 21 23 24 26 29 32 35 37 40 43 44 45 46 46 46 44 43 43 42 42 44 45 48 51 52
27 26 25 25 24 24 23 22 22 22 22 21 21 20 21 22 24 27 30 33 35 38 40 42 43 45 45 45 45 45 45 43 42 43 45 47 48 50
27 26 26 25 24 24 23 22 21 21 21 20 18 18 19 21 22 25 28 31 33 35 38 41 43 44 45 44 45 46 45 44 43 44 45 47 47 47
27 26 25 25 24 23 22 22 21 20 19 18 17 16 18 20 21 23 26 30 32 34 37 40 42 43 43 44 45 45 45 44 44 45 45 46 47 47

GEFSNE_500_meanwind_078.txt.gz
Wind_Speed
28 29 30 30 30 31 32 32 33 34 35 36 36 36 36 36 37 38 38 39 39 40 41 40 41 41 41 40 42 42 43 43 43 42 41 39 37 36
30 30 31 32 32 32 33 34 34 35 35 37 38 39 39 39 39 39 40 40 41 41 42 42 42 42 43 42 42 43 43 45 44 44 43 42 40 39
31 32 32 33 33 34 34 35 35 36 35 37 39 39 40 40 41 41 41 41 42 42 43 44 44 44 44 44 43 44 44 45 45 45 45 44 42 41
33 33 33 33 33 34 34 35 36 36 36 36 38 39 40 41 42 42 43 43 43 43 44 45 45 45 45 45 45 45 45 45 45 45 45 45 44 43
34 34 34 34 34 34 34 34 35 35 35 35 36 38 39 41 41 42 43 44 44 44 45 45 46 46 46 46 46 46 45 45 46 46 46 45 45 45
35 35 35 35 35 34 34 33 34 34 35 34 35 37 38 40 41 42 43 45 45 45 45 46 46 46 46 47 47 47 47 47 47 47 47 46 45 45
36 36 36 35 35 34 33 33 33 33 34 34 34 35 37 39 40 41 42 44 45 45 46 46 47 46 47 48 48 48 48 48 48 48 47 47 46 46
36 37 37 36 35 34 34 33 33 33 34 34 34 35 36 38 39 40 41 43 44 46 46 46 47 47 47 48 48 48 48 49 49 49 48 48 47 46
37 37 37 36 35 35 34 33 33 33 33 33 32 33 34 36 38 39 40 41 43 45 46 46 47 47 46 47 47 49 48 48 48 49 49 49 48 46
38 37 36 35 35 35 34 34 33 33 33 32 32 32 33 34 36 38 39 39 40 43 46 46 47 47 47 47 47 47 49 49 49 49 50 50 49 48
38 37 36 35 36 35 34 33 33 33 33 33 32 32 33 34 35 36 38 39 39 42 45 46 47 48 47 48 48 48 49 49 49 49 50 50 50 49
39 38 37 36 36 35 34 33 32 32 32 32 32 32 32 33 34 36 37 39 39 41 44 46 47 48 48 48 48 48 49 49 48 49 49 50 50 50
38 37 36 36 35 35 34 33 32 31 31 31 31 32 32 33 34 35 37 38 39 40 43 46 47 48 48 48 48 48 48 49 49 49 49 50 50 50
38 37 36 35 35 35 33 32 31 30 30 30 30 31 32 33 34 35 36 38 39 40 42 45 46 48 48 47 47 48 48 49 50 49 49 49 50 50
38 36 35 35 35 34 32 31 30 29 29 29 29 30 31 32 33 33 35 36 38 39 41 44 46 48 48 48 48 48 48 48 49 50 50 50 50 51
37 36 35 35 34 33 31 30 29 28 28 28 28 29 29 30 30 31 32 34 36 38 40 42 44 47 48 49 49 49 49 48 49 50 50 50 51 51
37 36 35 35 34 32 30 29 29 28 28 27 27 27 28 28 29 30 31 33 34 36 39 41 43 45 47 49 49 49 49 47 47 49 51 51 50 50
38 37 35 34 32 31 30 29 28 27 27 27 26 26 26 26 27 29 30 32 33 35 38 41 43 44 45 47 48 48 49 49 48 49 50 51 51 50
38 36 35 33 32 31 30 29 28 27 26 26 25 25 25 25 25 27 28 30 32 34 37 39 41 42 43 45 47 49 49 48 48 48 48 49 50 50
36 34 33 33 32 30 30 29 28 27 26 26 25 24 24 24 24 25 27 28 30 32 35 38 39 41 42 44 47 48 49 48 48 47 47 48 49 50
35 33 32 32 30 29 29 28 27 26 26 26 25 24 24 23 23 24 25 27 28 30 33 35 38 40 42 43 45 47 48 48 48 47 47 47 48 49
33 32 31 30 29 28 28 27 27 26 26 25 25 24 24 23 22 23 23 24 26 29 31 34 37 39 41 42 44 46 48 49 48 47 47 46 45 47
31 31 31 29 27 27 27 26 26 26 25 24 23 23 23 22 22 22 22 23 24 27 30 32 35 37 39 40 43 45 47 48 47 46 45 45 45 46

GEFSNE_500_meanwind_084.txt.gz
Wind_Speed
22 23 23 24 24 24 24 25 26 27 29 30 30 31 31 33 34 35 36 38 39 39 39 40 41 41 41 42 42 42 42 43 43 43 42 41 40 39
24 24 25 25 25 25 25 26 27 27 29 31 32 32 33 33 35 37 38 39 40 41 42 42 42 43 43 44 44 44 44 43 43 44 44 44 43 41
26 27 27 27 27 27 27 27 28 28 29 31 32 33 34 35 36 37 39 40 42 43 44 44 44 45 45 45 46 46 45 45 45 45 45 45 45 44
28 28 28 28 29 29 29 29 30 30 29 30 33 34 35 35 36 38 39 41 43 44 45 46 46 46 47 47 47 48 47 47 46 46 46 46 46 46
30 30 30 30 30 31 31 31 31 31 31 31 32 34 35 37 37 38 39 41 43 45 46 47 48 48 48 48 49 49 49 49 48 48 47 47 47 47
31 31 31 32 32 33 33 33 33 33 33 32 32 33 35 36 37 38 38 40 41 43 45 47 48 49 50 50 50 51 51 51 50 50 49 48 48 48
33 33 34 34 34 34 34 34 34 34 34 33 33 33 34 36 37 37 38 39 40 41 43 46 48 49 51 52 52 52 52 52 52 52 51 51 50 49
34 35 35 36 36 35 35 35 35 35 35 35 34 34 34 36 36 37 37 38 39 41 42 44 46 48 50 52 53 53 53 53 53 53 53 52 51 50
36 36 37 37 37 37 37 37 36 36 35 35 34 34 35 35 36 36 37 37 38 41 42 42 45 46 49 51 53 54 54 54 53 53 54 54 53 52
38 38 38 39 39 39 38 37 37 37 37 36 35 34 35 35 35 36 36 36 37 39 41 41 43 45 48 50 52 54 55 55 55 54 54 54 54 54
40 40 40 40 40 40 39 38 38 38 37 36 35 35 35 35 35 35 35 36 36 37 40 40 41 43 45 47 50 52 54 54 55 55 55 54 55 55
42 42 42 41 41 41 40 39 38 38 37 37 36 35 35 35 36 36 36 36 35 35 38 39 40 42 42 44 47 50 52 53 54 55 55 55 55 55
43 44 44 43 42 42 41 40 39 38 38 37 36 36 36 36 35 35 35 35 35 35 37 39 39 40 41 42 45 48 50 52 53 54 54 55 56 56
45 45 45 45 44 43 42 41 40 39 38 37 37 36 36 35 35 34 34 35 35 35 36 38 39 40 41 41 43 46 49 51 52 53 54 54 55 56
47 47 47 46 45 44 43 42 41 40 39 38 37 37 36 35 35 35 35 34 34 34 35 37 38 40 41 41 43 45 47 50 51 52 53 53 54 55
49 49 48 47 46 45 43 42 42 40 39 38 37 36 36 35 35 34 34 34 33 34 35 36 37 38 40 41 42 44 46 49 51 52 52 53 53 54
51 50 50 48 47 45 44 43 42 41 40 39 37 36 35 35 35 34 33 33 33 33 34 36 36 37 37 39 40 42 45 47 50 52 51 52 53 53
52 51 50 48 47 45 44 43 42 41 40 38 37 36 35 35 34 33 32 32 32 33 33 34 35 36 36 37 38 40 43 45 48 51 51 51 51 53
52 51 49 47 45 44 43 43 41 40 39 38 36 35 35 34 33 33 33 32 32 32 32 33 34 35 35 35 37 40 42 44 46 48 50 50 50 52
52 50 48 46 45 44 43 41 40 38 37 36 36 35 34 33 33 33 33 32 32 31 31 32 33 34 35 36 37 39 41 42 45 47 49 50 50 51
51 48 46 45 43 42 41 39 38 37 36 35 35 34 34 33 32 32 31 32 32 31 31 32 33 34 34 36 36 37 40 42 43 45 47 49 50 50
48 47 44 43 41 40 38 37 36 35 35 34 34 33 33 32 31 31 31 31 31 30 30 31 32 32 32 33 34 36 39 41 42 44 45 47 48 49
44 42 40 39 38 36 35 34 33 33 33 32 32 31 31 30 30 31 31 31 30 29 29 30 30 30 30 31 32 35 37 39 41 43 44 45 47 47